Location: Corcelles
(46.1547°N, 4.7234°E)
Time: 21:08:22
(UTC+00:00)

Cosmos 1441 Rocket - Pass Details

Date: 14 July 2020
Orbit: 495 x 541 km, 81.1° (Epoch: 14 August)

Event Time Altitude Azimuth Distance (km) Brightness Sun altitude
Exits shadow 00:10:20 69° 259° (W) 579 3.2 -22.0°
Maximum altitude 00:10:30 71° 282° (WNW) 574 3.3 -22.0°
Drops below altitude 10° 00:14:27 10° 7° (N) 1,797 7.1 -21.9°
Sets 00:16:37 0° 9° (N) 2,686 8.4 -21.9°
